FW6803 Weather Reports


Display with metric or nautical units.
time (UTC)temp
F
wind
direction
speed
MPH
gust
MPH
rain 1hr
in
rain 24hr
in
rain mn
in
humidity
%
barometer
mb
20260503203023 63 254 7.0 15.0 0.00 0.00 0.00 70 1005.4
20260503201523 62 271 4.0 14.0 0.00 0.00 0.00 72 1005.5
20260503200018 62 221 4.0 12.0 0.00 0.00 0.00 70 1005.5
20260503194522 62 311 5.0 11.0 0.00 0.00 0.00 70 1005.6
20260503193015 62 288 9.0 15.0 0.00 0.00 0.00 70 1005.6
20260503191515 64 286 6.0 13.0 0.00 0.00 0.00 67 1005.7
20260503190012 64 304 5.0 12.0 0.00 0.00 0.00 69 1005.6
20260503184511 62 273 4.0 13.0 0.00 0.00 0.00 71 1005.6
20260503183009 62 277 1.0 9.0 0.00 0.00 0.00 72 1005.5
20260503181508 62 275 5.0 12.0 0.00 0.00 0.00 72 1005.6
20260503180018 61 34 2.0 10.0 0.00 0.00 0.00 74 1005.4
20260503174512 61 9 4.0 11.0 0.00 0.00 0.00 75 1005.4
20260503173002 60 294 3.0 11.0 0.00 0.00 0.00 75 1005.5
20260503171503 59 257 2.0 9.0 0.00 0.00 0.00 77 1005.4
20260503081502 54 333 1.0 8.0 0.00 0.00 0.00 85 1004.3
20260503071612 54 288 1.0 7.0 0.00 0.00 0.00 85 1004.2
20260503070113 54 281 3.0 9.0 0.00 0.00 0.00 85 1004.3
20260503060118 54 346 1.0 8.0 0.00 0.00 0.00 84 1004.4
20260503054559 54 273 2.0 7.0 0.00 0.00 0.00 84 1004.5
20260503053054 54 302 3.0 12.0 0.00 0.00 0.00 84 1004.7
20260503051555 55 331 6.0 12.0 0.00 0.00 0.00 84 1004.7
20260503050100 55 304 4.0 13.0 0.00 0.00 0.00 84 1004.7
20260503044554 54 289 4.0 10.0 0.00 0.00 0.00 84 1004.6
20260503043054 54 282 4.0 13.0 0.00 0.00 0.00 84 1004.4
20260503041552 55 288 7.0 14.0 0.00 0.00 0.00 84 1004.5
20260503040054 55 323 2.0 14.0 0.00 0.00 0.00 84 1004.4
20260503034553 55 288 3.0 13.0 0.00 0.00 0.00 84 1004.4
20260503033058 55 292 7.0 10.0 0.00 0.00 0.00 84 1004.1
20260503031549 55 327 7.0 17.0 0.00 0.00 0.00 83 1003.9
20260503030049 55 307 6.0 16.0 0.00 0.00 0.00 83 1003.7
20260503024550 55 307 7.0 18.0 0.00 0.00 0.00 82 1003.7
20260503023048 55 331 0.0 13.0 0.00 0.00 0.00 81 1003.7
20260503021544 56 340 3.0 9.0 0.00 0.00 0.00 81 1003.7
20260503020046 56 290 5.0 11.0 0.00 0.00 0.00 80 1003.7
20260503014551 57 53 5.0 13.0 0.00 0.00 0.00 79 1003.8
20260503013043 57 292 5.0 11.0 0.00 0.00 0.00 78 1003.9
20260503011549 57 302 4.0 14.0 0.00 0.00 0.00 77 1004.1
20260503010039 58 45 4.0 10.0 0.00 0.00 0.00 76 1004.0
20260503004540 58 319 2.0 10.0 0.00 0.00 0.00 76 1004.0
20260503003040 58 264 5.0 15.0 0.00 0.00 0.00 75 1004.1
20260503001537 59 265 3.0 10.0 0.00 0.00 0.00 75 1004.2
20260503000038 60 279 3.0 12.0 0.00 0.00 0.00 73 1004.3
20260502234547 61 263 5.0 12.0 0.00 0.00 0.00 71 1004.4
20260502233033 61 342 0.0 14.0 0.00 0.00 0.00 72 1004.4
20260502231531 60 327 8.0 15.0 0.00 0.00 0.00 72 1004.7
20260502230032 60 271 5.0 15.0 0.00 0.00 0.00 73 1004.8
20260502224528 62 257 7.0 12.0 0.00 0.00 0.00 71 1005.1
20260502223028 60 350 4.0 14.0 0.00 0.00 0.00 73 1005.2
20260502221526 60 347 5.0 10.0 0.00 0.00 0.00 73 1005.6
20260502220026 61 306 1.0 8.0 0.00 0.00 0.00 72 1005.7
20260502214525 60 226 3.0 8.0 0.00 0.00 0.00 72 1005.7
20260502213036 61 296 4.0 10.0 0.00 0.00 0.00 72 1005.7
20260502211524 61 283 6.0 14.0 0.00 0.00 0.00 70 1005.8
20260502210022 60 286 6.0 16.0 0.00 0.00 0.00 71 1006.0
20260502204522 61 273 5.0 10.0 0.00 0.00 0.00 71 1006.1